Regional Weather Roundup
Issued by NWS Goodland, KS

Home | Current Version | Previous Version | Text Only | Print | Product List | Glossary Off
Versions: 1 2 3 4 5 6 7 8 9 10 11 12 13 14 15 16 17 18 19 20 21 22 23 24 25 26 27 28 29 30 31 32 33 34 35 36 37 38 39 40 41 42 43 44 45 46 47 48 49 50

000
ASUS43 KGLD 210759
RWRGLD

GOODLAND FORECAST AREA HOURLY WEATHER ROUNDUP
NATIONAL WEATHER SERVICE GOODLAND KS
200 AM MDT THU SEP 21 2017

...OFFICIAL OBSERVATIONS...

CITY           SKY/WX    TMP DP  RH WIND       PRES   REMARKS
GOODLAND KS    CLEAR     54  42  64 S13       29.85F
HILL CITY KS   CLEAR     54  44  69 E3        29.85F
IMPERIAL NEB   CLEAR     58  40  51 SE17G24   29.84F
MCCOOK NEB     CLEAR     53  44  71 E9        29.85F
AKRON CO       CLOUDY    51  33  50 SE13      29.83F
BURLINGTON CO  CLEAR     56  39  53 S16       29.87S
LIMON CO       CLOUDY    39  32  76 CALM      29.91S
$$

...UNOFFICIAL OBSERVATIONS...

CITY           SKY/WX    TMP DP  RH WIND       PRES   REMARKS
LENORA KS        N/A     60  32  34 MISG        N/A
NORTON KS      CLEAR     55  45  67 NE6       29.85F
SHARON SPRINGS   N/A     54  41  62 S8          N/A
TRENTON NEB      N/A     53  32  45 SE7         N/A
KIT CARSON CO    N/A     59  40  48 MISG        N/A
YUMA CO        FAIR      46  36  66 SE5       29.83S
$$




USA.gov is the U.S. government's official web portal to all federal, state and local government web resources and services.